sat.trackr.live / text

‹ back to catalog

KUIPER-00622

NORAD 69779 · 2026-151S

PAYLOAD ACTIVE UNKNOWN

§ Identity

Operator
Country
US
Launch date
2026-07-02
Launch site
AFETR
Launch vehicle
Mass (kg)
RCS (m²)

External: N2YO · Heavens-Above · Gunter

§ Orbital elements

Epoch: 2026-09-20T05:13:37.856928Z

Period
97.52 min
Inclination
51.9000°
Eccentricity
0.0001247
Mean motion
14.76569193 rev/d
Perigee alt
639.3 km
Apogee alt
641.0 km
Semi-major
7,018.3 km
B*
2.4919e-4
RAAN
234.4040°
Arg perigee
71.5360°
Mean anomaly
288.5737°
Rev number
1,207

§ Raw data

KUIPER-006221 69779U 26151S   26263.21779927  .00001540  00000+0  24919-3 0  99932 69779  51.9000 234.4040 0001247  71.5360 288.5737 14.76569193 12079

JSON: /api/v1/satellites/69779 · /tle

For live sub-satellite position, see the globe view (requires WebGL).

§ Visibility from observer

Set your observer location to see the next 7 days of passes ≥ 10°. The values pass through the URL so the page stays shareable.

No JS? Fill the form by hand. The geolocation button needs JavaScript.